• Join FlightAware (Why Join?)
  • Login
  • US Flag 
04:41PM EDT


 

Airport Tracker/Info


-or-


 

Live Flight TrackerFlight Track Log ✈ ASQ5740 ✈ 20-Nov-2013 ✈ KGSP - KIAD

Flight Track Log - Related Links

Times and Time Zones

All times are in EST time to prevent confusion due to time zone crossing. See the ASQ5740 flight status page for this flight to view local times or setup timezone preferences in your user account.

Time Position Orientation Groundspeed Altitude Reporting Facility
EST Latitude Longitude Course Direction KTS MPH feet Rate Location/Type
02:54PM 34.9789 -82.0894 68° East 280 322 6,300  Level Atlanta Center
02:55PM 35.1418 -81.9496 North  Level Estimated
02:55PM 35.0108 -82.0000 66° East 294 338 9,200  Level Atlanta Center
02:56PM 35.2237 -81.8594 North  Level Estimated
02:56PM 35.0658 -81.9300 46° Northeast 286 329 10,900  Level Atlanta Center
02:57PM 35.3055 -81.7691 North  Level Estimated
02:57PM 35.1619 -81.9378 356° North 265 305 12,500  Level Atlanta Center
02:58PM 35.3872 -81.6786 80° East  Level Estimated
02:58PM 35.2664 -81.9403 359° North 310 357 14,000  Level Atlanta Center
02:59PM 35.3422 -81.8644 39° Northeast 326 375 15,400 1,380 Climbing Atlanta Center
03:00PM 35.3900 -81.7358 65° Northeast 353 406 16,800 1,200 Climbing Atlanta Center
03:01PM 35.4397 -81.6172 63° Northeast 366 421 17,800 1,080 Climbing Atlanta Center
03:02PM 35.4872 -81.4881 66° East 394 453 19,000 1,020 Climbing Atlanta Center
03:03PM 35.5344 -81.3514 67° East 404 465 19,900 1,080 Climbing Atlanta Center
03:05PM 35.6406 -81.0669 65° Northeast 427 491 22,400 1,080 Climbing Atlanta Center
03:06PM 35.6914 -80.9294 65° Northeast 427 491 23,200 660 Climbing Atlanta Center
03:07PM 35.7383 -80.8100 64° Northeast 422 486 23,800 660 Climbing Atlanta Center
03:08PM 35.7911 -80.6722 65° Northeast 435 501 24,600 840 Climbing Atlanta Center
03:10PM 35.8831 -80.4269 65° Northeast 432 497 26,100 840 Climbing Washington Center
03:11PM 35.9344 -80.2867 66° East 437 503 26,900 420 Climbing Washington Center
03:12PM 35.9881 -80.1433 65° Northeast 443 510 27,000  Climbing Washington Center
03:13PM 36.0417 -79.9950 66° East 456 525 27,000  Level Washington Center
03:14PM 36.1156 -79.8578 56° Northeast 462 532 27,000  Level Washington Center
03:15PM 36.1956 -79.7178 55° Northeast 489 563 27,000  Level Washington Center
03:16PM 36.2711 -79.5803 56° Northeast 494 568 27,000 -240 Level Washington Center
03:17PM 36.3508 -79.4425 54° Northeast 494 568 26,600 -420 Descending Washington Center
03:18PM 36.4197 -79.3114 57° Northeast 494 568 26,200 -540 Descending Washington Center
03:19PM 36.5078 -79.1531 55° Northeast 501 577 25,600 -600 Descending Washington Center
03:20PM 36.5914 -79.0119 54° Northeast 501 577 25,100 -300 Descending Washington Center
03:21PM 36.6528 -78.8981 56° Northeast 501 577 25,000 -60 Descending Washington Center
03:22PM 36.7472 -78.7258 56° Northeast 501 577 25,000  Level Washington Center
03:23PM 36.8172 -78.5964 56° Northeast 501 577 25,000  Level Washington Center
03:24PM 36.9000 -78.4619 52° Northeast 501 577 25,000  Level Washington Center
03:25PM 37.0128 -78.3672 34° Northeast 479 551 25,000 -60 Level Washington Center
03:26PM 37.1422 -78.2703 31° Northeast 485 558 24,900 -480 Descending Washington Center
03:27PM 37.2567 -78.1803 32° Northeast 485 558 24,100 -780 Descending Washington Center
03:28PM 37.3564 -78.1028 32° Northeast 478 550 23,400 -900 Descending Washington Center
03:29PM 37.4667 -78.0175 32° Northeast 473 544 22,300 -900 Descending Washington Center
03:30PM 37.5728 -77.9317 33° Northeast 461 531 21,700 -660 Descending Washington Center
03:31PM 37.6639 -77.8611 32° Northeast 423 487 21,100 -1,260 Descending Washington Center
03:32PM 37.7442 -77.7953 33° Northeast 373 429 19,200 -1,680 Descending Washington Center
03:33PM 37.8225 -77.7317 33° Northeast 344 396 17,800 -1,800 Descending Washington Center
03:34PM 37.9008 -77.6708 31° Northeast 332 382 15,700 -1,980 Descending Washington Center
03:35PM 37.9769 -77.6097 32° Northeast 327 376 13,900 -1,920 Descending Washington Center
03:36PM 38.0572 -77.5486 31° Northeast 322 371 11,900 -1,860 Descending Washington Center
03:37PM 38.1289 -77.4922 32° Northeast 316 364 10,200 -960 Descending Washington Center
03:38PM 38.1986 -77.4358 32° Northeast 298 343 10,000 -720 Descending Washington Center
03:39PM 38.2703 -77.3928 25° Northeast 292 336 8,900 -1,320 Descending Washington Center
03:40PM 38.3458 -77.3575 20° North 281 323 7,400 -1,620 Descending Washington Center
03:41PM 38.4250 -77.3567 360° North 271 312 5,700 -1,500 Descending Washington Center
03:42PM 38.4981 -77.3639 356° North 271 312 4,400 -900 Descending Washington Center
03:43PM 38.5731 -77.3656 359° North 266 306 4,000 -240 Descending Washington Center
03:44PM 38.6439 -77.3644 North 266 306 4,000  Level Washington Center
03:45PM 38.7147 -77.3608 North 261 300 4,000  Level Washington Center
03:46PM 38.7858 -77.3572 North 251 289 4,000  Level Washington Center
03:47PM 38.8667 -77.3500 North 241 277 4,000  Level Potomac TRACON
03:48PM 38.9333 -77.3500 360° North 229 264 4,000 -480 Level Potomac TRACON
03:49PM 39.0000 -77.3500 360° North 224 258 3,100 -540 Descending Potomac TRACON
03:50PM 39.0500 -77.3500 360° North 218 251 3,000 -60 Descending Potomac TRACON
03:51PM 39.1000 -77.3500 360° North 177 204 3,000  Level Potomac TRACON
03:52PM 39.1500 -77.3667 346° North 187 215 3,000 -120 Level Potomac TRACON
03:53PM 39.1167 -77.4167 229° Southwest 181 208 2,800 -360 Descending Potomac TRACON
03:54PM 39.0833 -77.4500 218° Southwest 170 196 2,300 -660 Descending Potomac TRACON
03:55PM 39.0333 -77.4667 195° South 164 189 1,500 -780 Descending Potomac TRACON
03:56PM 39.0000 -77.4667 180° South 140 161 800 -720 Descending Potomac TRACON
03:58PM 38.9474 -77.4599 191° South  Level Estimated
04:05PM 38.9474 -77.4599 191° South  Level Estimated
04:06PM 38.9474 -77.4599 191° South  Level Estimated